Location: Baix
(44.7118°N, 4.7648°E)
Time: 10:33:43
(UTC+00:00)

Vanguard 2 Rocket - Pass Details

Date: 05 December 2020
Orbit: 554 x 3325 km, 32.9° (Epoch: 21 January)

Event Time Altitude Azimuth Distance (km) Brightness Sun altitude
Rises 06:54:10 0° 246° (WSW) 6,629 10.9 -2.1°
Reaches altitude 10° 06:58:19 10° 242° (WSW) 5,856 10.7 -1.5°
Maximum altitude 07:16:57 56° 172° (S) 3,728 10.4 1.3°
Drops below altitude 10° 07:34:39 10° 101° (E) 5,606 12.3 3.9°
Sets 07:38:31 0° 97° (E) 6,343 12.4 4.4°
